CZ-3B DEB, 40852

Orbit data source: Space-Track

CZ-3B DEB, 40852 is space debris in HEO originally from a launch on Mon, 19 Dec 2011 UTC launched from the Xichang Space Center, China (XSC). Debris objects in space refer to the collection of defunct objects orbiting the Earth. Examples of debris include non-operational satellites, rocket bodies, and fragments generated from explosions, collisions, or faulty payload assembly.

Loading next visibility...
Identifier
40852, 2011-077AH
Orbit
HEO
Country
Flag of CNCN / PRC
Related business
Manufacturer
CALT
Mission
Spacecraft
Bus & Motor
Unknown
Mass
Unknown
Launch date (UTC)
2011-12-19 (14 years ago)
Launch vehicle
Unknown
Launch site
Xichang Space Center, China (XSC)
Object type
Payload
Rocket body
Debris
Shape & HBR
Unknown
Radar Cross Section
Medium (>0.1 m² and <1 m²)

Expand to show TLE details & history
Last TLE update: 2 weeks ago

TLE from 2 weeks ago
0 CZ-3B DEB
1 40852U 11077AH  25250.02553545 -.00000066  00000-0  00000-0 0  9991
2 40852  26.5283 109.6572 7333522 186.5887 151.3077  1.90679491 80957
Epoch: 2025-09-07T00:36Z
TLE epoch observation values (Epoch: 2025-09-07T00:36:46.262Z)
Latitude
0.00006°
Longitude
114.15296°
Altitude
40,365.975 km
Speed
1.595 km/s
True Right ascension
07h 18m 47s
True Declination
0° 00' 00"
Sunlit
Object was in daylight at epoch
Visualization orbit readout
Latitude
Unknown
Longitude
Unknown
Altitude
Unknown
Speed
Unknown
Apparent Right ascension
Unknown
Apparent Declination
Unknown
Sunlit
N/A
Visualization observer readout
Local Sidereal Time
02:24:21
Azimuth
Unknown
Elevation
Unknown
Doppler factor
Unknown
Orbital elements
Apogee altitude
41,244.064 km
Perigee altitude
947.757 km
Semi-major axis
27,474.048 km
Eccentricity
0.73335
Inclination
26.5283°
RAAN
109.6572°
Arg. of periapsis
186.5887°
True anomaly
173.42973°
Mean anomaly
151.3077°
Eccentric anomaly
163.34817°
Mean motion
0.47661 °/min
Orbital period
755.34 mins
BSTAR
0
Loading maneuver chart data...
Computing Atmospheric mass density...
Loading historical data...
Loading historical data...
Loading historical data...
Loading historical data...
Loading historical data...
Loading historical data...
Loading historical data...

Documentation

Showing up to 5 results
|